Tillbaka till svenska Fidonet
English   Information   Debug  
FILM   0/18
FNEWS_PUBLISH   4926
FN_SYSOP   42201
FN_SYSOP_OLD1   71952
FTP_FIDO   0/2
FTSC_PUBLIC   0/13973
FUNNY   0/4886
GENEALOGY.EUR   0/71
GET_INFO   105
GOLDED   0/408
HAM   1291/16661
HOLYSMOKE   0/6791
HOT_SITES   0/1
HTMLEDIT   0/71
HUB203   466
HUB_100   264
HUB_400   39
HUMOR   0/29
IC   1790/2851
INTERNET   0/424
INTERUSER   0/3
IP_CONNECT   719
JAMNNTPD   0/233
JAMTLAND   0/47
KATTY_KORNER   0/41
LAN   0/16
LINUX-USER   0/19
LINUXHELP   0/1155
LINUX   0/22300
LINUX_BBS   0/957
mail   18.68
mail_fore_ok   249
MENSA   0/341
MODERATOR   0/102
MONTE   0/992
MOSCOW_OKLAHOMA   0/1245
MUFFIN   0/783
MUSIC   0/321
N203_STAT   938
N203_SYSCHAT   313
NET203   321
NET204   69
NET_DEV   0/10
NORD.ADMIN   0/101
NORD.CHAT   0/2572
NORD.FIDONET   189
NORD.HARDWARE   0/28
NORD.KULTUR   0/114
NORD.PROG   0/32
NORD.SOFTWARE   0/88
NORD.TEKNIK   0/58
NORD   0/453
OCCULT_CHAT   0/93
OS2BBS   0/787
OS2DOSBBS   0/580
OS2HW   0/42
OS2INET   0/37
OS2LAN   0/134
OS2PROG   0/36
OS2REXX   0/113
OS2USER-L   207
OS2   0/4830
OSDEBATE   7137/18996
PASCAL   0/490
PERL   0/457
PHP   0/45
POINTS   0/405
POLITICS   0/29554
POL_INC   0/14731
PSION   103
R20_ADMIN   1133
R20_AMATORRADIO   0/2
R20_BEST_OF_FIDONET   16
R20_CHAT   0/896
R20_DEPP   0/3
R20_DEV   400
R20_ECHO2   1831
R20_ECHOPRES   0/35
R20_ESTAT   0/719
R20_FIDONETPROG...
...RAM.MYPOINT
  0/2
R20_FIDONETPROGRAM   0/22
R20_FIDONET   0/248
R20_FILEFIND   0/24
R20_FILEFOUND   0/22
R20_HIFI   0/3
R20_INFO2   3724
R20_INTERNET   0/12940
R20_INTRESSE   0/60
R20_INTR_KOM   0/99
R20_KANDIDAT.CHAT   42
R20_KANDIDAT   28
R20_KOM_DEV   112
R20_KONTROLL   0/13360
R20_KORSET   0/18
R20_LOKALTRAFIK   0/24
R20_MODERATOR   0/1852
R20_NC   76
R20_NET200   245
R20_NETWORK.OTH...
...ERNETS
  0/13
R20_OPERATIVSYS...
...TEM.LINUX
  0/44
R20_PROGRAMVAROR   0/1
R20_REC2NEC   534
R20_SFOSM   0/341
R20_SF   0/108
R20_SPRAK.ENGLISH   0/1
R20_SQUISH   107
R20_TEST   2
R20_WORST_OF_FIDONET   20
RAR   0/9
RA_MULTI   106
RA_UTIL   0/162
REGCON.EUR   0/2068
REGCON   0/13
SCIENCE   0/1206
SF   0/239
SHAREWARE_SUPPORT   0/5146
SHAREWRE   0/14
SIMPSONS   0/169
STATS_OLD1   0/2539.065
STATS_OLD2   0/2530
STATS_OLD3   0/2395.095
STATS_OLD4   0/1692.25
SURVIVOR   0/495
SYSOPS_CORNER   0/3
SYSOP   0/84
TAGLINES   0/112
TEAMOS2   0/4530
TECH   0/2617
TEST.444   0/105
TRAPDOOR   0/19
TREK   0/755
TUB   0/290
UFO   0/40
UNIX   0/1316
USA_EURLINK   0/102
USR_MODEMS   0/1
VATICAN   0/2740
VIETNAM_VETS   0/14
VIRUS   0/378
VIRUS_INFO   0/201
VISUAL_BASIC   0/473
WHITEHOUSE   0/5187
WIN2000   0/101
WIN32   0/30
WIN95   0/4291
WIN95_OLD1   0/70272
WINDOWS   0/1517
WWB_SYSOP   0/419
WWB_TECH   0/810
ZCC-PUBLIC   0/1
ZEC   4

 
4DOS   0/134
ABORTION   0/7
ALASKA_CHAT   0/506
ALLFIX_FILE   0/1313
ALLFIX_FILE_OLD1   0/7997
ALT_DOS   0/152
AMATEUR_RADIO   0/1039
AMIGASALE   0/14
AMIGA   0/331
AMIGA_INT   0/1
AMIGA_PROG   0/20
AMIGA_SYSOP   0/26
ANIME   0/15
ARGUS   0/924
ASCII_ART   0/340
ASIAN_LINK   0/651
ASTRONOMY   0/417
AUDIO   0/92
AUTOMOBILE_RACING   0/105
BABYLON5   0/17862
BAG   135
BATPOWER   0/361
BBBS.ENGLISH   0/382
BBSLAW   0/109
BBS_ADS   0/5290
BBS_INTERNET   0/507
BIBLE   0/3563
BINKD   0/1119
BINKLEY   0/215
BLUEWAVE   0/2173
CABLE_MODEMS   0/25
CBM   0/46
CDRECORD   0/66
CDROM   0/20
CLASSIC_COMPUTER   0/378
COMICS   0/15
CONSPRCY   0/899
COOKING   41445
COOKING_OLD1   0/24719
COOKING_OLD2   0/40862
COOKING_OLD3   0/37489
COOKING_OLD4   0/35496
COOKING_OLD5   9370
C_ECHO   0/189
C_PLUSPLUS   0/31
DIRTY_DOZEN   0/201
DOORGAMES   0/2286
DOS_INTERNET   0/196
duplikat   6102
ECHOLIST   0/18295
EC_SUPPORT   0/318
ELECTRONICS   0/359
ELEKTRONIK.GER   1534
ENET.LINGUISTIC   0/13
ENET.POLITICS   0/4
ENET.SOFT   0/11701
ENET.SYSOP   34296
ENET.TALKS   0/32
ENGLISH_TUTOR   0/2000
EVOLUTION   0/1335
FDECHO   0/217
FDN_ANNOUNCE   0/7068
FIDONEWS   25062
FIDONEWS_OLD1   0/49742
FIDONEWS_OLD2   5852/35949
FIDONEWS_OLD3   4502/30874
FIDONEWS_OLD4   0/37224
FIDO_SYSOP   12922
FIDO_UTIL   0/180
FILEFIND   0/209
FILEGATE   0/212
Möte HAM, 16661 texter
 lista första sista föregående nästa
Text 1152, 766 rader
Skriven 2006-08-05 02:21:16 av Amsat List (1:323/120.0)
Ärende: [keps] orb06216.amsa
============================
[keps] orb06216.amsa


SB KEPS @ AMSAT  $ORB06216.O
Orbital Elements  06216.OSCAR

HR AMSAT ORBITAL ELEMENTS FOR OSCAR SATELLITES
FROM WA5QGD FORT WORTH,TX August 4, 2006
Send SUBSCRIBE KEPS/UNSUBSCRIBE KEPS to majordomo@amsat.org only
BID: ORB06216.O
TO ALL RADIO AMATEURS BT

Satellite: AO-07
Catalog number: 07530
Epoch time:      06215.19257454
Element set:     645
Inclination:      101.5642 deg
RA of node:       256.9433 deg
Eccentricity:    0.0012106
Arg of perigee:   153.9074 deg
Mean anomaly:     206.2611 deg
Mean motion:   12.53571631 rev/day
Decay rate:       -2.8e-07 rev/day^2
Epoch rev:           45127
Checksum:              271

Satellite: AO-10
Catalog number: 14129
Epoch time:      06213.94447664
Element set:    0299
Inclination:      027.3650 deg
RA of node:       322.5724 deg
Eccentricity:    0.6031314
Arg of perigee:   306.0080 deg
Mean anomaly:     012.1247 deg
Mean motion:   02.05869261 rev/day
Decay rate:      -3.79e-06 rev/day^2
Epoch rev:           17399
Checksum:              292

Satellite: UO-11
Catalog number: 14781
Epoch time:      06214.64863047
Element set:    0139
Inclination:      098.2067 deg
RA of node:       225.8511 deg
Eccentricity:    0.0010104
Arg of perigee:   113.5067 deg
Mean anomaly:     246.7220 deg
Mean motion:   14.79445186 rev/day
Decay rate:      -2.20e-06 rev/day^2
Epoch rev:           20263
Checksum:              272

Satellite: RS-10/11
Catalog number: 18129
Epoch time:      06216.21680130
Element set:      58
Inclination:      082.9259 deg
RA of node:       292.6320 deg
Eccentricity:    0.0011331
Arg of perigee:   328.2547 deg
Mean anomaly:     031.7922 deg
Mean motion:   13.72777089 rev/day
Decay rate:        4.0e-07 rev/day^2
Epoch rev:           95774
Checksum:              294

Satellite: RS-15
Catalog number: 23439
Epoch time:      06214.93395445
Element set:    0037
Inclination:      064.8163 deg
RA of node:       161.6173 deg
Eccentricity:    0.0167020
Arg of perigee:   246.0260 deg
Mean anomaly:     112.3095 deg
Mean motion:   11.27552431 rev/day
Decay rate:       -3.9e-07 rev/day^2
Epoch rev:           47781
Checksum:              284

Satellite: FO-29
Catalog number: 24278
Epoch time:      06214.98302997
Element set:    0289
Inclination:      098.5101 deg
RA of node:       213.0413 deg
Eccentricity:    0.0350382
Arg of perigee:   188.2334 deg
Mean anomaly:     171.2960 deg
Mean motion:   13.52922963 rev/day
Decay rate:       -1.0e-07 rev/day^2
Epoch rev:           49187
Checksum:              311

Satellite: SO-33
Catalog number: 25509
Epoch time:      06216.18864744
Element set:     712
Inclination:      031.4289 deg
RA of node:       217.9305 deg
Eccentricity:    0.0355147
Arg of perigee:   176.1765 deg
Mean anomaly:     184.1684 deg
Mean motion:   14.28109945 rev/day
Decay rate:        1.2e-07 rev/day^2
Epoch rev:           40590
Checksum:              313

Satellite: AO-40
Catalog number: 26609
Epoch time:      06211.17312294
Element set:     760
Inclination:      006.2336 deg
RA of node:       228.8670 deg
Eccentricity:    0.7959599
Arg of perigee:   185.6809 deg
Mean anomaly:     149.3107 deg
Mean motion:   01.25586178 rev/day
Decay rate:       -4.8e-07 rev/day^2
Epoch rev:            2639
Checksum:              334

Satellite: VO-52
Catalog number: 28650
Epoch time:      06216.15421035
Element set:     394
Inclination:      097.8683 deg
RA of node:       288.3322 deg
Eccentricity:    0.0026716
Arg of perigee:   203.6121 deg
Mean anomaly:     156.3902 deg
Mean motion:   14.81149416 rev/day
Decay rate:       -7.0e-07 rev/day^2
Epoch rev:            6748
Checksum:              295

/EX
SB KEPS @ AMSAT  $ORB06216.D
Orbital Elements  06216.MICROS

HR AMSAT ORBITAL ELEMENTS FOR THE MICROSATS
FROM WA5QGD FORT WORTH,TX August 4, 2006
Send SUBSCRIBE KEPS/UNSUBSCRIBE KEPS to majordomo@amsat.org only
BID: ORB06216.D
TO ALL RADIO AMATEURS BT

Satellite: AO-16
Catalog number: 20439
Epoch time:      06214.62378025
Element set:     810
Inclination:      098.1865 deg
RA of node:       221.9548 deg
Eccentricity:    0.0011992
Arg of perigee:   058.3467 deg
Mean anomaly:     301.8891 deg
Mean motion:   14.31728785 rev/day
Decay rate:        1.1e-07 rev/day^2
Epoch rev:           86296
Checksum:              323

Satellite: WO-18
Catalog number: 20441
Epoch time:      06215.65614797
Element set:      10
Inclination:      098.1863 deg
RA of node:       227.5520 deg
Eccentricity:    0.0012649
Arg of perigee:   055.1116 deg
Mean anomaly:     305.1247 deg
Mean motion:   14.31798879 rev/day
Decay rate:       -1.0e-08 rev/day^2
Epoch rev:           86317
Checksum:              297

Satellite: LO-19
Catalog number: 20442
Epoch time:      06215.90378112
Element set:     748
Inclination:      098.1878 deg
RA of node:       232.6636 deg
Eccentricity:    0.0012771
Arg of perigee:   054.7048 deg
Mean anomaly:     305.5330 deg
Mean motion:   14.31972068 rev/day
Decay rate:        6.5e-07 rev/day^2
Epoch rev:           86328
Checksum:              310

Satellite: UO-22
Catalog number: 21575
Epoch time:      06215.45306400
Element set:     764
Inclination:      098.2989 deg
RA of node:       171.6804 deg
Eccentricity:    0.0006510
Arg of perigee:   292.9904 deg
Mean anomaly:     067.0606 deg
Mean motion:   14.39557135 rev/day
Decay rate:        9.0e-08 rev/day^2
Epoch rev:           78981
Checksum:              318

Satellite: KO-23
Catalog number: 22077
Epoch time:      06214.78569107
Element set:    0861
Inclination:      066.0861 deg
RA of node:       004.4560 deg
Eccentricity:    0.0003504
Arg of perigee:   348.5661 deg
Mean anomaly:     011.5261 deg
Mean motion:   12.86437555 rev/day
Decay rate:       -3.7e-07 rev/day^2
Epoch rev:           65653
Checksum:              294

